Flag for Russia Weather past 2 weeks in Kaliningrad, Russia

Now
48 °F

Broken clouds.


Feels Like: 43 °F
Forecast: 37 / 40 °F
Wind: 13 mph from South

Location: Kaliningrad/Khrabrovo Airport

Current Time: Mar 2, 2015 at 2:47:30 PM

Latest Report: Mar 2, 2015 at 2:00 PM


Visibility: N/A

Pressure: 29.39 "Hg

Humidity: 62%

Dew point: 36 °F

Location of KaliningradLocation

Historic Weather in Kaliningrad — Graph

°F

Kaliningrad temperature yesterday

Maximum temperature yesterday: 46 °F (at 1:00 PM)
Minimum temperature yesterday: 36 °F (at 5:00 AM)
Average temperature yesterday: 41 °F

Past Weeks' High & Low Weather Summary

 TemperatureHumidityPressure
High48 °F (Feb 21, 1:00 PM)100% (Feb 23, 4:00 AM)30.66 "Hg (Feb 23, 4:00 AM)
Low21 °F (Feb 16, 8:00 AM)19% (Feb 17, 1:00 PM)29.42 "Hg (Feb 21, 5:30 PM)
Average36 °F76%30.03 "Hg
* Reported Feb 15 1:00 PM — Mar 2 1:30 PM, Kaliningrad, Weather by CustomWeather, © 2015

Note: Actual official high and low records may vary slightly from our data, if they occured in-between our weather recording intervals... More about our weather records

Advertising

Kaliningrad weather history for previous 24 hours

 ConditionsComfort  
Time TempWeatherWind HumidityBarometerVisibility
1:30 PM
Mon, Mar 2
48 °FBroken clouds.13 mph62%29.42 "HgN/A
1:00 PM46 °FBroken clouds.10 mph66%29.42 "HgN/A
12:30 PM46 °FMostly cloudy.10 mph66%29.45 "HgN/A
12:00 PM45 °FMostly cloudy.10 mph71%29.45 "HgN/A
11:30 AM46 °FBroken clouds.8 mph71%29.45 "HgN/A
11:00 AM45 °FBroken clouds.10 mph71%29.45 "HgN/A
10:30 AM43 °FPartly sunny.10 mph81%29.45 "HgN/A
10:00 AM43 °FPartly sunny.10 mph81%29.47 "Hg5 mi
9:30 AM41 °FPartly sunny.10 mph93%29.47 "Hg4 mi
9:00 AM41 °FMostly cloudy.10 mph87%29.47 "Hg4 mi
8:30 AM41 °FFog.10 mph87%29.47 "Hg3 mi
8:00 AM41 °FFog.8 mph93%29.47 "Hg2 mi
7:30 AM39 °FFog.6 mph100%29.47 "Hg2 mi
7:00 AM39 °FFog.6 mph93%29.47 "Hg2 mi
6:30 AM39 °FSprinkles. Fog.6 mph93%29.47 "Hg2 mi
6:00 AM39 °FSprinkles. Fog.6 mph93%29.47 "Hg2 mi
5:30 AM39 °FFog.8 mph93%29.47 "Hg3 mi
5:00 AM39 °FLight rain. Fog.8 mph93%29.50 "Hg3 mi
4:30 AM39 °FLight rain. Fog.6 mph93%29.50 "Hg3 mi
4:00 AM39 °FLight rain. Fog.6 mph93%29.50 "Hg3 mi
3:00 AM41 °FLight rain. Fog.8 mph87%29.50 "Hg3 mi
2:00 AM41 °FLight rain. Fog.6 mph87%29.53 "Hg2 mi
1:00 AM41 °FLight rain. Fog.6 mph87%29.53 "Hg2 mi
12:00 AM41 °FLight rain. Fog.8 mph87%29.56 "Hg3 mi
11:30 PM
Sun, Mar 1
41 °FLight rain. Fog.8 mph87%29.56 "Hg3 mi
11:00 PM41 °FLight rain. Fog.8 mph87%29.56 "Hg3 mi
10:30 PM43 °FFog.10 mph76%29.59 "Hg3 mi
10:00 PM41 °FMostly cloudy.10 mph81%29.59 "Hg4 mi
9:30 PM41 °FPartly cloudy.10 mph81%29.59 "Hg4 mi
9:00 PM41 °FPassing clouds.10 mph76%29.62 "Hg4 mi
8:30 PM41 °FPassing clouds.10 mph76%29.62 "Hg4 mi
8:00 PM41 °FPartly sunny.8 mph76%29.62 "HgN/A
7:30 PM41 °FPartly sunny.8 mph76%29.62 "HgN/A
7:00 PM41 °FPartly sunny.8 mph76%29.65 "HgN/A
6:30 PM41 °FPartly sunny.10 mph76%29.65 "HgN/A
6:00 PM43 °FScattered clouds.10 mph66%29.65 "HgN/A
5:00 PM45 °FScattered clouds.15 mph57%29.68 "HgN/A
4:30 PM46 °FScattered clouds.17 mph53%29.71 "HgN/A
4:00 PM46 °FScattered clouds.17 mph53%29.71 "HgN/A
3:30 PM46 °FScattered clouds.15 mph53%29.74 "HgN/A
3:00 PM46 °FScattered clouds.15 mph57%29.74 "HgN/A
2:30 PM46 °FScattered clouds.17 mph53%29.77 "HgN/A
2:00 PM46 °FPartly sunny.15 mph53%29.77 "HgN/A
Weather by CustomWeather, © 2015

See weather overviewHow to use our weather pages